Showing default

JILIN-01 GAOFEN 3D 28, 52445

Orbit data source: Space-Track

JILIN-01 GAOFEN 3D 28, 52445 is a payload satellite owned by Changguang WJ (CN) in SSO that was launched on Thu, 05 May 2022 UTC via a CHANG ZHENG 2D launch vehicle from the Taiyaun Space Center, China (TSC). Payload-class satellites include a variety of spacecraft equipped with specific instruments for various scientific and technological missions. These include communications satellites like Starlink; space stations such as the ISS; scientific satellites like the Hubble; Earth observation satellites from companies like Planet Labs, Umbra, and HawkEye 360; GPS; miniature CubeSats for education and research; and military/defense satellites.

Loading next visibility...
Identifier
52445, 2022-048C
Orbit
SSO
Last TLE update
8 hours ago
Origin
Manufacturer
Changguang WJ
Mission
Operational Commercial Imaging
Bus & Motor
JL-1, Unknown motor
Mass
42 kg wet, 42 kg dry
Launch date (UTC)
2022-05-05 (3 years ago)
Launch vehicle
CHANG ZHENG 2D
Launch site
Taiyaun Space Center, China (TSC)
Object type
Payload
Rocket body
Debris
Shape & HBR
Box + 2 Pan, 1.5 m
Radar Cross Section
2.000 m², Medium (>0.1 m² and < 1m²)

Expand to show TLE details & history

TLE from 8 hours ago
0 JILIN-01 GAOFEN 3D 28
1 52445U 22048C   25185.89507751  .00017004  00000-0  46619-3 0  9990
2 52445  97.5690 276.4439 0006489 230.7547 129.3121 15.37343254175647
Epoch: 2025-07-04T21:28Z
TLE epoch observation values (Epoch: 2025-07-04T21:28:54.696Z)
Latitude
-0.00012°
Longitude
31.0751°
Altitude
459.889 km
Speed
7.635 km/s
True Right ascension
18h 25m 46s
True Declination
0° 00' 00"
Sunlit
Object was in full shadow at epoch
Visualization orbit readout
Latitude
76.90336°
Longitude
-113.96006°
Altitude
469.761 km
Speed
7.637 km/s
Apparent Right ascension
06h 20m 34s
Apparent Declination
23° 01' 00"
Sunlit
Object is in daylight
Visualization observer readout
Local Sidereal Time
17:37:14
Azimuth
348.879° N
Elevation
-26.261°
Doppler factor
1
Orbital elements
Apogee altitude
455.35 km
Perigee altitude
446.488 km
Semi-major axis
6,829.056 km
Eccentricity
0.00065
Inclination
97.569°
RAAN
276.4439°
Arg. of periapsis
230.7547°
True anomaly
Unknown
Mean anomaly
129.3121°
Eccentric anomaly
Unknown
Mean motion
3.84594 °/min
Orbital period
93.61 mins
BSTAR
0.00046619
Loading maneuver chart data...
Loading SW <> Apogee altitude chart data...
Loading historical data...
Loading historical data...
Loading historical data...
Loading historical data...
Loading historical data...
Loading historical data...
Loading historical data...

JILIN-01 GAOFEN 3D 28 Visibility forecast

Observer location: undefined°, undefined°

Span
Click to sort rows by Start time (UTC) header in descending order
Start Az.
Max El. time (UTC)
Max El. Az.
Max El.
End time (UTC)
End Az.
4 mins2025-07-05 18:22:47.556Z61.167° ENE2025-07-05 18:23:47.556Z88.982° E24.238°2025-07-05 18:26:47.556Z155.613° SSE
|